Theta_e
282 281 278 279 279 279 276 277 275 276 280 284 286 282 283 285 286 286 286 285 283 283 283 282 281 279 278 278 280 280 277 275 275 277 277 277 276 281 283 284 284 284 283 284
277 281 280 278 279 279 279 278 277 278 278 287 289 288 284 284 281 283 282 282 282 282 285 284 282 279 276 273 273 276 273 272 273 273 275 275 275 281 283 284 284 283 283 283
275 279 279 273 278 279 277 277 278 274 280 285 285 286 286 284 284 284 283 284 282 282 282 282 281 280 276 273 272 271 270 271 271 270 271 272 274 283 283 282 283 283 282 282
277 275 270 280 285 285 282 282 281 279 282 285 287 285 284 285 283 285 283 283 283 281 280 280 278 276 273 271 270 269 269 271 270 268 268 271 271 277 283 283 283 283 282 281
275 271 277 281 282 280 281 281 285 283 284 286 285 284 286 287 287 285 282 282 282 280 277 278 278 274 273 269 268 269 270 272 270 267 268 268 270 270 273 281 280 281 281 280
275 273 267 280 279 281 283 276 283 287 287 286 284 280 288 281 280 279 278 274 276 276 273 278 274 274 273 272 272 272 272 273 269 267 267 268 270 271 271 273 276 279 279 275
275 273 275 283 279 281 275 282 281 284 286 285 283 288 286 280 279 278 278 277 274 274 279 278 274 274 273 272 274 274 273 271 269 268 270 271 274 274 274 273 274 273 276 275
276 274 271 280 279 280 285 280 284 285 286 285 286 286 284 281 279 279 278 275 275 276 276 273 274 276 274 275 276 275 275 273 271 271 274 275 275 277 276 276 276 274 274 275
278 278 282 281 281 283 283 283 282 284 285 287 286 285 285 285 284 284 282 281 278 278 278 276 275 278 278 278 276 275 275 273 271 273 276 277 276 277 277 277 275 275 276 274
279 282 282 282 283 283 284 284 285 285 285 285 285 285 284 285 285 285 284 281 279 278 279 279 278 279 280 278 278 276 274 273 273 274 276 276 278 278 276 273 273 275 274 273
275 281 282 284 284 285 286 285 284 284 285 286 285 285 285 285 285 285 284 280 278 278 279 280 280 279 279 279 277 276 275 274 275 275 274 276 277 275 276 276 276 271 270 271
277 284 285 286 285 285 285 285 285 284 285 285 285 285 285 284 285 284 281 279 277 278 278 280 279 280 279 279 279 278 276 275 274 275 274 274 275 273 281 282 282 282 282 278
282 283 284 287 284 285 285 284 284 284 285 285 286 286 284 284 284 280 278 278 278 279 279 278 277 280 280 280 280 278 278 277 275 275 275 275 274 274 272 274 282 282 282 282
283 282 283 284 285 286 286 285 281 279 279 281 282 280 280 280 277 277 278 279 278 277 277 277 278 281 282 280 280 279 279 277 277 276 277 275 274 274 272 272 269 270 278 279
283 283 285 282 280 279 277 276 275 276 277 279 277 279 276 278 275 276 275 275 276 274 275 274 277 280 279 280 279 279 279 279 278 276 277 277 276 273 272 271 270 269 267 274
279 277 278 279 282 279 277 272 275 276 275 275 275 273 271 270 270 270 271 271 271 276 272 272 276 279 278 281 279 279 279 280 278 278 277 276 275 273 271 271 269 269 269 270
276 280 273 275 280 276 277 276 276 272 271 270 267 265 264 264 264 264 266 267 267 271 271 272 276 274 277 280 279 279 279 279 278 277 277 276 275 274 274 271 272 271 271 269
281 278 277 278 275 273 271 268 266 264 263 261 260 260 260 260 262 263 265 267 268 269 268 272 273 273 273 275 277 278 278 278 277 277 275 274 275 274 274 273 272 271 269 271
273 277 269 268 265 267 263 261 260 259 259 259 259 260 260 261 262 263 263 267 272 271 273 272 274 272 268 269 272 272 273 274 273 269 272 272 271 272 273 273 272 271 269 268
263 263 264 261 261 261 259 256 256 258 257 257 257 261 264 266 266 266 268 270 270 270 276 274 272 276 276 269 274 270 277 277 271 269 270 270 271 272 272 270 270 271 272 271
261 262 262 261 259 258 259 257 258 261 260 260 262 263 265 267 265 265 264 264 267 268 271 273 273 272 275 273 271 278 278 277 275 271 267 268 269 269 272 272 270 270 268 267
258 260 260 260 261 261 260 261 260 260 261 261 263 263 262 262 264 264 264 263 265 267 268 268 269 272 273 274 274 273 272 273 273 272 268 268 270 272 274 273 269 268 269 270
259 259 260 261 261 261 262 261 261 261 260 260 260 261 261 261 261 260 259 263 264 265 265 266 268 268 268 268 268 268 268 268 268 269 269 269 269 269 268 267 267 267 266 266
260 261 261 260 260 261 261 261 261 261 261 260 260 260 260 260 259 261 262 262 262 262 263 264 265 266 265 265 265 265 265 265 265 265 265 266 265 265 265 265 264 265 264 264
262 262 262 261 262 262 262 261 261 260 259 259 260 260 260 261 259 260 260 260 261 260 260 262 264 263 261 261 261 261 262 262 263 263 263 263 263 263 263 263 263 263 263 263
260 260 260 261 261 262 261 260 259 259 258 258 258 259 259 260 260 260 260 259 259 259 258 258 258 259 259 258 259 259 259 260 260 260 261 261 261 261 261 261 261 261 261 261
262 262 260 260 260 260 259 258 257 257 258 257 256 258 258 258 258 258 258 257 257 256 256 256 256 256 256 256 255 255 255 256 256 256 256 257 257 258 258 258 258 258 258 257
Wind_Speed
11 5 2 4 5 13 17 16 11 6 14 14 6 8 8 8 5 4 7 6 6 6 6 6 6 5 4 3 3 1 1 3 5 6 6 6 6 7 9 9 8 8 10 11
7 12 9 11 11 11 18 16 16 16 17 8 7 6 5 9 4 8 8 8 8 7 7 8 8 7 6 5 4 2 1 5 5 4 6 6 6 7 8 9 8 9 11 12
5 2 3 10 19 21 9 8 13 17 15 3 8 10 9 7 8 11 10 9 8 10 10 9 9 8 8 6 3 3 3 4 4 3 6 6 6 7 8 10 8 9 12 13
1 2 6 7 3 15 23 16 17 3 5 13 15 6 5 5 7 10 8 8 8 7 7 7 6 5 5 4 4 4 3 5 4 2 4 5 4 5 7 8 8 8 10 12
4 4 7 7 5 7 10 12 20 16 17 17 5 2 9 11 10 9 7 7 6 6 6 6 8 7 6 4 5 4 5 5 5 1 4 4 5 4 4 5 5 6 7 10
3 4 7 3 2 1 3 5 2 11 20 9 9 4 6 2 4 4 5 3 5 5 4 7 6 8 7 7 6 7 6 6 5 2 2 4 6 4 3 3 4 5 6 4
6 4 9 5 3 4 3 6 2 3 5 11 7 5 4 3 2 3 5 7 4 4 9 8 8 8 8 6 11 6 5 5 4 3 3 3 5 3 3 4 4 5 6 6
4 6 12 6 5 7 3 2 5 4 3 7 5 6 4 5 4 5 5 3 5 6 6 5 7 9 7 10 7 6 6 5 4 4 2 0 3 4 3 3 4 5 5 5
11 8 1 8 1 5 0 3 2 6 3 5 4 4 3 1 3 5 6 6 5 7 6 6 8 10 10 9 7 6 6 6 4 4 3 3 2 2 3 3 2 3 3 4
3 8 10 8 6 5 5 2 4 4 4 3 3 3 5 3 4 4 4 5 5 7 7 9 10 13 14 7 8 8 8 6 5 6 5 4 2 1 1 1 2 2 2 3
6 7 6 8 11 7 9 7 4 3 5 8 6 7 5 4 5 5 6 3 5 7 8 12 10 13 12 9 9 8 8 7 6 5 4 4 3 4 2 2 3 2 2 1
4 8 5 5 4 7 10 9 8 6 4 5 5 7 4 6 5 4 5 3 4 8 8 10 9 11 10 12 13 11 9 7 7 6 4 4 4 1 2 4 2 1 2 1
5 15 12 9 2 3 7 6 3 6 6 5 4 4 4 4 4 4 4 4 6 9 8 6 7 10 10 11 13 13 12 9 7 8 6 6 4 5 4 3 5 5 4 3
13 8 9 7 5 6 5 5 3 1 1 4 4 2 4 4 3 4 6 7 7 7 6 7 7 11 9 11 12 13 12 11 9 9 8 7 6 5 4 4 3 3 8 6
13 10 15 6 3 6 4 3 2 4 3 6 4 5 4 7 4 6 5 6 7 6 6 5 7 9 7 11 13 13 11 9 9 8 8 8 7 5 5 4 4 3 1 4
4 4 3 8 10 5 5 2 4 5 4 2 3 3 4 4 5 5 6 6 4 7 5 5 7 7 6 10 11 9 11 13 10 8 8 8 7 6 5 5 4 4 4 4
2 9 2 6 9 3 7 5 2 2 2 2 3 5 5 6 5 5 6 5 5 6 6 6 10 5 6 9 11 8 7 8 11 8 9 9 8 9 7 5 5 5 5 4
9 4 3 4 3 5 3 5 5 4 3 3 4 4 4 4 4 6 6 6 6 7 4 6 7 6 5 6 8 6 7 7 8 9 6 7 8 7 7 7 5 5 3 4
5 8 4 6 4 6 5 4 4 2 4 4 4 4 3 4 4 4 4 6 9 9 11 11 12 8 3 4 4 3 3 5 6 3 4 6 4 4 6 6 5 5 4 3
4 6 7 6 6 6 5 4 4 5 4 3 3 5 7 9 9 8 3 11 12 9 11 10 10 9 7 3 4 1 3 5 5 4 5 5 5 5 5 5 4 3 4 3
4 7 8 9 9 6 6 4 5 7 6 6 7 7 7 6 11 10 11 7 14 15 13 13 10 7 6 4 3 3 3 3 4 3 3 3 4 4 4 4 3 3 2 2
4 7 8 8 10 10 7 7 8 7 8 9 8 9 10 11 9 8 11 9 8 15 10 9 10 14 10 10 6 6 5 5 4 3 3 3 3 3 3 3 3 3 4 5
6 7 8 9 10 9 10 10 10 9 11 11 11 9 10 8 8 7 7 12 8 13 9 10 15 17 17 11 10 10 11 11 9 9 8 8 8 8 7 7 7 6 6 6
8 8 8 6 7 10 13 9 10 10 10 11 11 11 8 5 8 7 7 10 13 13 12 13 15 19 16 10 11 11 11 11 10 9 9 12 9 9 9 8 8 7 7 8
8 9 8 7 9 8 8 6 9 9 10 11 11 11 10 8 8 6 7 8 15 12 11 17 20 19 12 11 11 11 11 11 10 10 10 10 9 9 9 8 8 7 7 7
9 8 8 10 8 7 7 6 8 7 6 9 9 8 8 8 8 8 9 12 12 13 11 10 11 11 11 11 11 12 11 10 10 10 10 9 9 9 8 8 8 7 6 6
9 9 8 9 8 8 8 8 8 8 8 7 9 8 8 8 9 10 11 10 10 10 9 10 10 12 10 10 10 10 9 9 12 9 9 8 8 7 7 6 6 5 5 5
Wind_Direction
270 260 245 245 185 198 210 219 198 212 215 241 201 202 207 205 212 235 245 226 202 192 186 171 171 176 175 192 210 184 70 291 278 279 286 291 301 318 307 305 314 326 326 319
263 242 219 240 227 214 219 230 258 273 269 234 252 207 189 209 181 240 235 232 218 200 185 194 192 192 187 198 212 166 205 260 274 304 301 313 317 317 319 320 322 346 341 330
253 320 149 280 228 217 194 193 200 227 236 249 246 248 229 219 204 228 231 218 213 204 198 196 193 180 190 191 179 189 221 267 278 316 319 325 320 322 341 336 334 354 357 343
191 179 223 234 255 217 216 219 214 210 204 206 225 232 229 213 198 219 218 224 224 203 189 186 170 161 138 146 199 190 233 257 264 342 310 312 320 314 342 346 352 356 358 352
187 218 300 288 193 166 170 244 225 225 239 231 173 149 267 226 207 217 204 221 212 185 169 157 167 158 151 182 213 183 227 237 242 151 297 305 314 305 302 325 328 347 359 359
140 240 222 290 142 108 144 297 334 224 233 176 142 183 250 208 178 188 199 194 194 168 147 158 174 155 161 203 215 211 215 219 228 180 266 295 287 296 276 299 302 326 333 335
192 236 283 233 165 73 109 232 125 307 200 142 164 204 186 148 123 171 184 190 169 169 185 188 154 158 186 199 224 204 186 178 224 209 235 248 294 290 302 311 335 346 344 337
192 205 255 143 76 184 210 317 130 68 47 140 123 152 177 187 191 188 202 210 186 177 203 185 165 169 191 216 219 177 179 179 220 222 221 323 293 304 325 346 0 348 347 349
193 212 269 209 185 215 17 226 106 115 139 153 192 189 157 216 238 228 213 211 184 196 198 190 188 189 203 226 180 180 176 196 193 215 208 212 194 304 326 349 24 352 356 354
100 234 228 212 248 222 205 229 128 99 132 196 241 271 267 274 269 254 237 214 179 182 211 213 200 205 219 183 177 178 189 197 195 197 197 191 240 206 156 23 356 10 9 355
274 294 312 249 232 196 211 217 207 225 217 231 232 256 244 254 253 248 244 209 170 196 219 229 198 210 207 191 166 189 198 183 198 199 201 193 180 177 193 236 165 180 243 231
253 220 216 265 245 175 187 197 210 202 244 242 205 242 258 267 257 241 236 226 206 220 224 236 206 215 202 193 181 183 197 197 189 183 190 190 180 212 226 176 221 271 350 112
287 307 319 295 329 161 182 190 180 189 220 266 269 237 252 252 251 245 246 245 232 237 236 230 215 221 202 191 190 195 200 195 186 178 180 189 187 183 189 269 240 249 253 299
276 288 301 258 264 192 126 116 110 140 208 234 253 268 265 259 301 266 267 258 251 252 243 233 228 231 200 189 194 205 204 190 188 185 183 184 192 191 174 175 205 252 242 238
258 216 234 247 333 350 44 87 153 247 255 277 260 254 236 275 271 271 280 282 276 268 262 241 245 247 190 189 195 202 198 199 191 178 180 181 182 185 185 182 191 192 173 233
282 250 242 232 245 227 209 186 220 252 216 260 250 310 318 306 304 302 295 290 283 291 281 266 257 253 201 190 197 205 206 202 188 183 179 177 176 180 184 192 189 197 202 217
246 278 261 257 234 219 218 214 197 72 7 351 9 319 329 316 310 314 307 291 279 279 267 263 274 262 214 197 195 203 201 200 186 178 181 183 182 189 193 185 193 197 206 202
231 223 209 197 168 143 119 61 44 41 48 297 304 330 339 343 287 281 292 321 323 315 319 327 304 293 243 198 197 200 190 189 187 192 181 182 192 188 187 192 191 192 202 206
206 189 145 82 65 88 80 68 47 349 349 345 0 347 280 273 289 307 339 23 21 3 346 335 325 324 279 217 181 178 165 165 175 163 165 160 160 178 178 179 182 188 183 187
92 75 86 90 59 64 89 34 49 47 355 19 30 41 35 23 8 11 41 49 17 346 340 349 348 358 352 291 202 174 176 157 153 159 153 156 164 169 177 169 165 172 177 179
79 94 94 91 84 68 66 62 65 45 3 23 41 38 35 35 46 35 37 27 1 353 0 4 6 358 1 2 35 32 56 85 120 133 126 133 132 144 156 160 154 140 149 158
21 79 84 86 86 76 50 52 54 49 40 34 33 46 47 35 27 55 45 29 356 2 10 15 11 16 22 28 37 42 47 63 73 82 88 97 109 118 128 124 122 104 85 67
61 74 82 80 87 84 72 60 58 59 56 45 40 38 58 48 36 34 27 6 12 19 28 23 26 33 40 42 40 41 44 45 43 42 44 49 52 60 64 61 58 59 61 59
74 73 76 70 75 79 75 64 65 60 63 58 51 45 40 45 48 32 33 17 25 28 35 34 35 38 44 43 46 47 46 46 47 49 53 54 53 56 57 58 60 58 61 61
64 67 66 67 75 72 75 77 78 61 59 58 51 46 44 43 58 30 33 34 33 38 37 30 37 40 43 43 44 46 46 46 45 51 51 52 53 54 55 55 55 57 58 56
65 69 66 56 63 72 72 70 73 58 59 62 51 42 42 40 43 44 43 38 39 39 39 32 33 37 41 41 43 45 43 41 41 44 48 47 47 49 48 49 50 48 46 46
67 67 73 70 57 59 62 65 71 59 51 58 67 38 40 40 42 47 46 43 42 41 38 36 35 36 39 41 41 39 37 40 39 40 38 39 39 37 37 37 38 35 38 36